Time,TemperatureF,DewpointF,PressureIn,WindDirection,WindDirectionDegrees,WindSpeedMPH,WindSpeedGustMPH,Humidity,HourlyPrecipIn,Conditions,Clouds,dailyrainin,SoftwareType,DateUTC
2013-02-20 00:00:00,22.1,17.5,29.91,West,270,4.9,7.4,82,0.00,,,0.00,WUHU216HW,2013-02-20 05:00:00,
2013-02-20 00:05:00,22.0,17.6,29.92,WNW,293,2.2,7.4,83,0.00,,,0.00,WUHU216HW,2013-02-20 05:05:00,
2013-02-20 00:10:00,21.8,17.4,29.92,NW,315,8.1,8.1,83,0.00,,,0.00,WUHU216HW,2013-02-20 05:10:00,
2013-02-20 00:15:00,21.6,17.5,29.92,WSW,248,9.8,9.8,84,0.00,,,0.00,WUHU216HW,2013-02-20 05:15:00,
2013-02-20 00:20:00,21.2,16.3,29.92,WNW,293,5.4,9.8,81,0.00,,,0.00,WUHU216HW,2013-02-20 05:20:00,
2013-02-20 00:25:00,21.1,14.6,29.92,WNW,293,9.8,9.8,76,0.00,,,0.00,WUHU216HW,2013-02-20 05:25:00,
2013-02-20 00:30:00,20.9,14.4,29.92,West,270,4.0,9.8,76,0.00,,,0.00,WUHU216HW,2013-02-20 05:30:00,
2013-02-20 00:35:00,20.9,14.8,29.92,WNW,293,5.4,9.8,77,0.00,,,0.00,WUHU216HW,2013-02-20 05:35:00,
2013-02-20 00:40:00,20.7,15.2,29.92,West,270,4.0,6.9,79,0.00,,,0.00,WUHU216HW,2013-02-20 05:40:00,
2013-02-20 00:45:00,20.5,15.6,29.93,West,270,4.9,6.9,81,0.00,,,0.00,WUHU216HW,2013-02-20 05:45:00,
2013-02-20 00:50:00,20.3,14.9,29.93,WSW,248,7.8,8.9,79,0.00,,,0.00,WUHU216HW,2013-02-20 05:50:00,
2013-02-20 00:55:00,20.2,14.3,29.93,WSW,248,6.9,10.1,78,0.00,,,0.00,WUHU216HW,2013-02-20 05:55:00,
2013-02-20 01:00:00,20.0,14.1,29.93,WSW,248,5.4,10.1,78,0.00,,,0.00,WUHU216HW,2013-02-20 06:00:00,
2013-02-20 01:05:00,20.0,14.1,29.93,WSW,248,5.1,8.3,78,0.00,,,0.00,WUHU216HW,2013-02-20 06:05:00,
2013-02-20 01:10:00,20.0,13.9,29.93,West,270,7.6,7.6,77,0.00,,,0.00,WUHU216HW,2013-02-20 06:10:00,
2013-02-20 01:15:00,19.8,13.3,29.94,WNW,293,5.4,7.6,76,0.00,,,0.00,WUHU216HW,2013-02-20 06:15:00,
2013-02-20 01:20:00,19.8,12.8,29.94,West,270,5.8,7.6,74,0.00,,,0.00,WUHU216HW,2013-02-20 06:20:00,
2013-02-20 01:25:00,19.8,12.8,29.94,WNW,293,6.7,10.1,74,0.00,,,0.00,WUHU216HW,2013-02-20 06:25:00,
2013-02-20 01:30:00,19.8,12.8,29.94,SW,225,9.4,10.1,74,0.00,,,0.00,WUHU216HW,2013-02-20 06:30:00,
2013-02-20 01:36:00,19.8,12.8,29.94,West,270,6.5,9.4,74,0.00,,,0.00,WUHU216HW,2013-02-20 06:36:00,
2013-02-20 01:41:00,19.6,12.6,29.94,WNW,293,4.3,8.9,74,0.00,,,0.00,WUHU216HW,2013-02-20 06:41:00,
2013-02-20 01:46:00,19.6,12.6,29.94,West,270,5.8,7.8,74,0.00,,,0.00,WUHU216HW,2013-02-20 06:46:00,
2013-02-20 01:51:00,19.6,12.9,29.94,SW,225,4.0,5.8,75,0.00,,,0.00,WUHU216HW,2013-02-20 06:51:00,
2013-02-20 01:56:00,19.4,13.0,29.94,WNW,293,4.3,4.5,76,0.00,,,0.00,WUHU216HW,2013-02-20 06:56:00,
2013-02-20 02:01:00,19.4,13.3,29.94,West,270,3.1,5.4,77,0.00,,,0.00,WUHU216HW,2013-02-20 07:01:00,
2013-02-20 02:06:00,19.3,13.4,29.94,WNW,293,1.8,5.4,78,0.00,,,0.00,WUHU216HW,2013-02-20 07:06:00,
2013-02-20 02:11:00,19.3,13.8,29.94,WNW,293,3.4,4.0,79,0.00,,,0.00,WUHU216HW,2013-02-20 07:11:00,
2013-02-20 02:16:00,19.1,14.1,29.94,WSW,248,4.7,4.7,81,0.00,,,0.00,WUHU216HW,2013-02-20 07:16:00,
2013-02-20 02:22:00,18.7,13.8,29.94,WNW,293,3.6,4.9,81,0.00,,,0.00,WUHU216HW,2013-02-20 07:22:00,
2013-02-20 02:27:00,18.5,13.3,29.94,WNW,293,8.1,8.1,80,0.00,,,0.00,WUHU216HW,2013-02-20 07:27:00,
2013-02-20 02:32:00,18.4,12.9,29.95,West,270,4.7,8.1,79,0.00,,,0.00,WUHU216HW,2013-02-20 07:32:00,
2013-02-20 02:37:00,18.4,12.5,29.95,West,270,4.0,6.0,78,0.00,,,0.00,WUHU216HW,2013-02-20 07:37:00,
2013-02-20 02:42:00,18.4,12.0,29.95,NW,315,7.6,9.6,76,0.00,,,0.00,WUHU216HW,2013-02-20 07:42:00,
2013-02-20 02:47:00,18.2,11.8,29.94,WNW,293,3.1,9.6,76,0.00,,,0.00,WUHU216HW,2013-02-20 07:47:00,
2013-02-20 02:52:00,18.0,11.4,29.95,WNW,293,5.6,6.3,75,0.00,,,0.00,WUHU216HW,2013-02-20 07:52:00,
2013-02-20 02:57:00,18.0,11.6,29.94,West,270,5.4,7.2,76,0.00,,,0.00,WUHU216HW,2013-02-20 07:57:00,
2013-02-20 03:05:00,17.8,11.4,29.94,WNW,293,3.8,7.2,76,0.00,,,0.00,WUHU216HW,2013-02-20 08:05:00,
2013-02-20 03:10:00,17.8,11.2,29.94,WNW,293,4.3,9.2,75,0.00,,,0.00,WUHU216HW,2013-02-20 08:10:00,
2013-02-20 03:15:00,17.8,11.2,29.95,WSW,248,5.1,9.2,75,0.00,,,0.00,WUHU216HW,2013-02-20 08:15:00,
2013-02-20 03:20:00,17.8,10.9,29.95,WNW,293,5.8,8.3,74,0.00,,,0.00,WUHU216HW,2013-02-20 08:20:00,
2013-02-20 03:25:00,17.8,10.9,29.95,West,270,7.4,8.3,74,0.00,,,0.00,WUHU216HW,2013-02-20 08:25:00,
2013-02-20 03:30:00,17.8,10.5,29.95,West,270,3.1,7.4,73,0.00,,,0.00,WUHU216HW,2013-02-20 08:30:00,
2013-02-20 03:35:00,17.8,10.3,29.95,West,270,5.6,6.7,72,0.00,,,0.00,WUHU216HW,2013-02-20 08:35:00,
2013-02-20 03:40:00,17.8,10.0,29.95,WSW,248,5.8,8.7,71,0.00,,,0.00,WUHU216HW,2013-02-20 08:40:00,
2013-02-20 03:45:00,17.8,10.0,29.95,SW,225,4.0,9.2,71,0.00,,,0.00,WUHU216HW,2013-02-20 08:45:00,
2013-02-20 03:50:00,17.8,10.0,29.96,West,270,2.7,9.2,71,0.00,,,0.00,WUHU216HW,2013-02-20 08:50:00,
2013-02-20 03:55:00,18.0,9.6,29.96,WSW,248,5.4,8.9,69,0.00,,,0.00,WUHU216HW,2013-02-20 08:55:00,
2013-02-20 04:00:00,17.8,9.7,29.95,West,270,3.4,8.9,70,0.00,,,0.00,WUHU216HW,2013-02-20 09:00:00,
2013-02-20 04:05:00,17.8,9.4,29.95,NNW,338,3.1,6.5,69,0.00,,,0.00,WUHU216HW,2013-02-20 09:05:00,
2013-02-20 04:10:00,17.6,9.2,29.95,WNW,293,7.4,7.4,69,0.00,,,0.00,WUHU216HW,2013-02-20 09:10:00,
2013-02-20 04:15:00,17.6,9.2,29.95,WNW,293,4.3,7.6,69,0.00,,,0.00,WUHU216HW,2013-02-20 09:15:00,
2013-02-20 04:20:00,17.6,9.2,29.95,West,270,5.1,7.6,69,0.00,,,0.00,WUHU216HW,2013-02-20 09:20:00,
2013-02-20 04:25:00,17.6,9.2,29.95,WNW,293,2.7,8.1,69,0.00,,,0.00,WUHU216HW,2013-02-20 09:25:00,
2013-02-20 04:30:00,17.8,9.4,29.96,West,270,6.3,8.1,69,0.00,,,0.00,WUHU216HW,2013-02-20 09:30:00,
2013-02-20 04:35:00,17.8,9.0,29.96,NNW,338,3.8,7.6,68,0.00,,,0.00,WUHU216HW,2013-02-20 09:35:00,
2013-02-20 04:40:00,17.6,8.8,29.96,WSW,248,6.7,11.9,68,0.00,,,0.00,WUHU216HW,2013-02-20 09:40:00,
2013-02-20 04:46:00,17.6,9.2,29.96,WNW,293,3.1,11.9,69,0.00,,,0.00,WUHU216HW,2013-02-20 09:46:00,
2013-02-20 04:51:00,17.6,8.6,29.97,SW,225,3.8,10.3,67,0.00,,,0.00,WUHU216HW,2013-02-20 09:51:00,
2013-02-20 04:56:00,17.6,8.2,29.97,West,270,7.8,10.5,66,0.00,,,0.00,WUHU216HW,2013-02-20 09:56:00,
2013-02-20 05:01:00,17.6,8.6,29.97,WSW,248,3.8,10.5,67,0.00,,,0.00,WUHU216HW,2013-02-20 10:01:00,
2013-02-20 05:06:00,17.6,8.6,29.97,West,270,3.6,8.5,67,0.00,,,0.00,WUHU216HW,2013-02-20 10:06:00,
2013-02-20 05:11:00,17.6,8.2,29.97,WSW,248,13.0,13.0,66,0.00,,,0.00,WUHU216HW,2013-02-20 10:11:00,
2013-02-20 05:16:00,17.6,8.2,29.98,WSW,248,8.1,13.0,66,0.00,,,0.00,WUHU216HW,2013-02-20 10:16:00,
2013-02-20 05:21:00,17.6,8.8,29.97,WNW,293,6.5,8.9,68,0.00,,,0.00,WUHU216HW,2013-02-20 10:21:00,
2013-02-20 05:26:00,17.6,8.8,29.97,WNW,293,9.8,9.8,68,0.00,,,0.00,WUHU216HW,2013-02-20 10:26:00,
2013-02-20 05:31:00,17.6,9.2,29.97,WNW,293,4.5,9.8,69,0.00,,,0.00,WUHU216HW,2013-02-20 10:31:00,
2013-02-20 05:36:00,17.6,9.2,29.98,SW,225,9.6,9.6,69,0.00,,,0.00,WUHU216HW,2013-02-20 10:36:00,
2013-02-20 05:41:00,17.5,9.0,29.98,WNW,293,6.3,9.6,69,0.00,,,0.00,WUHU216HW,2013-02-20 10:41:00,
2013-02-20 05:46:00,17.6,9.2,29.98,WNW,293,9.6,9.6,69,0.00,,,0.00,WUHU216HW,2013-02-20 10:46:00,
2013-02-20 05:51:00,17.6,9.2,29.98,West,270,3.4,9.6,69,0.00,,,0.00,WUHU216HW,2013-02-20 10:51:00,
2013-02-20 05:56:00,17.6,9.2,29.98,West,270,5.6,6.9,69,0.00,,,0.00,WUHU216HW,2013-02-20 10:56:00,
2013-02-20 06:01:00,17.6,9.2,29.98,SW,225,4.3,10.7,69,0.00,,,0.00,WUHU216HW,2013-02-20 11:01:00,
2013-02-20 06:06:00,17.6,8.8,29.98,West,270,6.0,10.7,68,0.00,,,0.00,WUHU216HW,2013-02-20 11:06:00,
2013-02-20 06:11:00,17.6,9.2,29.98,West,270,5.8,10.5,69,0.00,,,0.00,WUHU216HW,2013-02-20 11:11:00,
2013-02-20 06:16:00,17.6,9.2,29.98,WNW,293,4.0,10.5,69,0.00,,,0.00,WUHU216HW,2013-02-20 11:16:00,
2013-02-20 06:21:00,17.6,9.2,29.99,West,270,4.7,7.6,69,0.00,,,0.00,WUHU216HW,2013-02-20 11:21:00,
2013-02-20 06:26:00,17.5,9.0,29.99,WSW,248,5.8,9.2,69,0.00,,,0.00,WUHU216HW,2013-02-20 11:26:00,
2013-02-20 06:31:00,17.5,9.0,29.99,West,270,5.6,9.2,69,0.00,,,0.00,WUHU216HW,2013-02-20 11:31:00,
2013-02-20 06:36:00,17.6,9.2,29.99,West,270,3.8,8.9,69,0.00,,,0.00,WUHU216HW,2013-02-20 11:36:00,
2013-02-20 06:41:00,17.5,9.0,29.99,NW,315,7.4,8.1,69,0.00,,,0.00,WUHU216HW,2013-02-20 11:41:00,
2013-02-20 06:46:00,17.6,8.8,29.99,NNW,338,4.7,10.1,68,0.00,,,0.00,WUHU216HW,2013-02-20 11:46:00,
2013-02-20 06:51:00,17.6,8.8,30.00,West,270,9.4,10.1,68,0.00,,,0.00,WUHU216HW,2013-02-20 11:51:00,
2013-02-20 06:56:00,17.6,9.2,30.00,West,270,4.0,9.4,69,0.00,,,0.00,WUHU216HW,2013-02-20 11:56:00,
2013-02-20 07:01:00,17.6,9.2,30.00,West,270,13.4,13.4,69,0.00,,,0.00,WUHU216HW,2013-02-20 12:01:00,
2013-02-20 07:06:00,17.6,9.2,30.00,WNW,293,5.1,13.4,69,0.00,,,0.00,WUHU216HW,2013-02-20 12:06:00,
2013-02-20 07:11:00,17.6,9.5,30.01,WSW,248,4.7,9.8,70,0.00,,,0.00,WUHU216HW,2013-02-20 12:11:00,
2013-02-20 07:16:00,17.6,9.5,30.01,WNW,293,4.0,9.8,70,0.00,,,0.00,WUHU216HW,2013-02-20 12:16:00,
2013-02-20 07:21:00,17.6,9.8,30.01,SW,225,6.9,6.9,71,0.00,,,0.00,WUHU216HW,2013-02-20 12:21:00,
2013-02-20 07:26:00,17.5,9.6,30.01,WNW,293,2.0,6.9,71,0.00,,,0.00,WUHU216HW,2013-02-20 12:26:00,
2013-02-20 07:31:00,17.6,9.8,30.01,NNW,338,6.9,6.9,71,0.00,,,0.00,WUHU216HW,2013-02-20 12:31:00,
2013-02-20 07:36:00,17.5,9.6,30.01,WNW,293,3.4,6.9,71,0.00,,,0.00,WUHU216HW,2013-02-20 12:36:00,
2013-02-20 07:41:00,17.5,9.9,30.02,SW,225,5.4,6.5,72,0.00,,,0.00,WUHU216HW,2013-02-20 12:41:00,
2013-02-20 07:46:00,17.5,9.6,30.02,WNW,293,3.6,6.7,71,0.00,,,0.00,WUHU216HW,2013-02-20 12:46:00,
2013-02-20 07:51:00,17.5,9.9,30.02,North,0,1.1,6.7,72,0.00,,,0.00,WUHU216HW,2013-02-20 12:51:00,
2013-02-20 07:56:00,17.6,10.1,30.02,WSW,248,2.5,6.3,72,0.00,,,0.00,WUHU216HW,2013-02-20 12:56:00,
2013-02-20 08:01:00,17.6,10.5,30.02,WSW,248,2.7,8.5,73,0.00,,,0.00,WUHU216HW,2013-02-20 13:01:00,
2013-02-20 08:06:00,17.6,10.5,30.02,SW,225,4.0,8.5,73,0.00,,,0.00,WUHU216HW,2013-02-20 13:06:00,
2013-02-20 08:11:00,17.6,10.7,30.02,WNW,293,3.1,5.4,74,0.00,,,0.00,WUHU216HW,2013-02-20 13:11:00,
2013-02-20 08:16:00,17.6,11.0,30.03,WNW,293,3.1,4.3,75,0.00,,,0.00,WUHU216HW,2013-02-20 13:16:00,
2013-02-20 08:21:00,17.6,11.3,30.03,WSW,248,4.0,5.6,76,0.00,,,0.00,WUHU216HW,2013-02-20 13:21:00,
2013-02-20 08:26:00,17.6,11.9,30.03,WNW,293,4.7,8.7,78,0.00,,,0.00,WUHU216HW,2013-02-20 13:26:00,
2013-02-20 08:31:00,17.3,11.8,30.03,West,270,2.5,8.7,79,0.00,,,0.00,WUHU216HW,2013-02-20 13:31:00,
2013-02-20 08:36:00,17.3,11.8,30.03,WNW,293,2.9,6.3,79,0.00,,,0.00,WUHU216HW,2013-02-20 13:36:00,
2013-02-20 08:41:00,17.5,12.5,30.03,WNW,293,4.9,4.9,81,0.00,,,0.00,WUHU216HW,2013-02-20 13:41:00,
2013-02-20 08:46:00,17.3,12.3,30.03,West,270,2.7,4.9,81,0.00,,,0.00,WUHU216HW,2013-02-20 13:46:00,
2013-02-20 08:51:00,17.3,12.1,30.03,WSW,248,4.5,5.4,80,0.00,,,0.00,WUHU216HW,2013-02-20 13:51:00,
2013-02-20 08:56:00,17.5,12.5,30.03,West,270,3.1,6.7,81,0.00,,,0.00,WUHU216HW,2013-02-20 13:56:00,
2013-02-20 09:01:00,17.5,12.5,30.03,WNW,293,4.7,8.1,81,0.00,,,0.00,WUHU216HW,2013-02-20 14:01:00,
2013-02-20 09:06:00,17.8,12.3,30.03,NW,315,3.1,8.1,79,0.00,,,0.00,WUHU216HW,2013-02-20 14:06:00,
2013-02-20 09:12:00,18.2,12.7,30.03,WSW,248,5.6,7.4,79,0.00,,,0.00,WUHU216HW,2013-02-20 14:12:00,
2013-02-20 09:17:00,18.2,12.7,30.03,West,270,4.0,6.0,79,0.00,,,0.00,WUHU216HW,2013-02-20 14:17:00,
2013-02-20 09:22:00,18.4,12.9,30.03,West,270,5.4,6.9,79,0.00,,,0.00,WUHU216HW,2013-02-20 14:22:00,
2013-02-20 09:27:00,18.7,12.6,30.03,WNW,293,3.4,8.1,77,0.00,,,0.00,WUHU216HW,2013-02-20 14:27:00,
2013-02-20 09:32:00,18.7,11.7,30.03,West,270,8.9,8.9,74,0.00,,,0.00,WUHU216HW,2013-02-20 14:32:00,
2013-02-20 09:37:00,18.9,11.9,30.03,WNW,293,6.0,8.9,74,0.00,,,0.00,WUHU216HW,2013-02-20 14:37:00,
2013-02-20 09:42:00,19.1,10.8,30.02,WSW,248,6.3,7.4,70,0.00,,,0.00,WUHU216HW,2013-02-20 14:42:00,
2013-02-20 09:47:00,19.1,10.8,30.02,WSW,248,10.3,10.3,70,0.00,,,0.00,WUHU216HW,2013-02-20 14:47:00,
2013-02-20 09:52:00,19.3,9.6,30.02,NW,315,5.8,10.3,66,0.00,,,0.00,WUHU216HW,2013-02-20 14:52:00,
2013-02-20 09:57:00,19.4,9.8,30.02,West,270,6.9,9.2,66,0.00,,,0.00,WUHU216HW,2013-02-20 14:57:00,
2013-02-20 10:02:00,19.6,9.6,30.02,WSW,248,5.4,9.2,65,0.00,,,0.00,WUHU216HW,2013-02-20 15:02:00,
2013-02-20 10:07:00,20.0,10.4,30.02,WSW,248,6.7,11.4,66,0.00,,,0.00,WUHU216HW,2013-02-20 15:07:00,
2013-02-20 10:12:00,20.2,10.2,30.02,West,270,6.3,11.4,65,0.00,,,0.00,WUHU216HW,2013-02-20 15:12:00,
2013-02-20 10:17:00,20.2,9.5,30.03,North,0,9.6,9.6,63,0.00,,,0.00,WUHU216HW,2013-02-20 15:17:00,
2013-02-20 10:22:00,20.0,9.6,30.02,West,270,8.1,9.6,64,0.00,,,0.00,WUHU216HW,2013-02-20 15:22:00,
2013-02-20 10:27:00,20.7,10.7,30.03,SW,225,4.7,8.5,65,0.00,,,0.00,WUHU216HW,2013-02-20 15:27:00,
2013-02-20 10:32:00,21.1,9.7,30.04,West,270,9.8,9.8,61,0.00,,,0.00,WUHU216HW,2013-02-20 15:32:00,
2013-02-20 10:37:00,20.5,8.4,30.03,West,270,6.5,10.1,59,0.00,,,0.00,WUHU216HW,2013-02-20 15:37:00,
2013-02-20 10:42:00,20.3,9.0,30.04,West,270,4.7,11.2,61,0.00,,,0.00,WUHU216HW,2013-02-20 15:42:00,
2013-02-20 10:47:00,20.7,9.4,30.04,WNW,293,4.3,11.2,61,0.00,,,0.00,WUHU216HW,2013-02-20 15:47:00,
2013-02-20 10:52:00,20.9,9.6,30.04,West,270,5.6,7.8,61,0.00,,,0.00,WUHU216HW,2013-02-20 15:52:00,
2013-02-20 10:57:00,21.1,9.7,30.04,WSW,248,4.7,7.8,61,0.00,,,0.00,WUHU216HW,2013-02-20 15:57:00,
2013-02-20 11:02:00,20.7,9.4,30.04,SW,225,7.4,15.0,61,0.00,,,0.00,WUHU216HW,2013-02-20 16:02:00,
2013-02-20 11:08:00,20.7,9.7,30.04,West,270,3.8,15.0,62,0.00,,,0.00,WUHU216HW,2013-02-20 16:08:00,
2013-02-20 11:13:00,21.2,10.3,30.03,West,270,4.0,8.3,62,0.00,,,0.00,WUHU216HW,2013-02-20 16:13:00,
2013-02-20 11:18:00,21.2,10.5,30.04,West,270,5.1,9.8,63,0.00,,,0.00,WUHU216HW,2013-02-20 16:18:00,
2013-02-20 11:23:00,21.8,10.7,30.04,West,270,4.5,9.8,62,0.00,,,0.00,WUHU216HW,2013-02-20 16:23:00,
2013-02-20 11:28:00,21.2,10.3,30.04,NW,315,3.1,8.9,62,0.00,,,0.00,WUHU216HW,2013-02-20 16:28:00,
2013-02-20 11:33:00,21.1,11.1,30.04,SW,225,4.3,8.9,65,0.00,,,0.00,WUHU216HW,2013-02-20 16:33:00,
2013-02-20 11:38:00,21.1,11.1,30.04,West,270,9.2,10.3,65,0.00,,,0.00,WUHU216HW,2013-02-20 16:38:00,
2013-02-20 11:43:00,21.2,11.6,30.05,West,270,3.4,10.3,66,0.00,,,0.00,WUHU216HW,2013-02-20 16:43:00,
2013-02-20 11:48:00,21.4,11.1,30.05,NW,315,8.3,10.1,64,0.00,,,0.00,WUHU216HW,2013-02-20 16:48:00,
2013-02-20 11:53:00,21.4,11.1,30.05,WNW,293,8.5,10.1,64,0.00,,,0.00,WUHU216HW,2013-02-20 16:53:00,
2013-02-20 11:58:00,21.8,11.4,30.04,WNW,293,3.8,10.3,64,0.00,,,0.00,WUHU216HW,2013-02-20 16:58:00,
2013-02-20 12:03:00,22.0,10.9,30.04,West,270,4.3,10.3,62,0.00,,,0.00,WUHU216HW,2013-02-20 17:03:00,
2013-02-20 12:08:00,22.3,11.3,30.04,West,270,6.3,7.6,62,0.00,,,0.00,WUHU216HW,2013-02-20 17:08:00,
2013-02-20 12:13:00,22.1,10.4,30.04,WSW,248,8.7,8.9,60,0.00,,,0.00,WUHU216HW,2013-02-20 17:13:00,
2013-02-20 12:18:00,22.1,10.4,30.05,WSW,248,3.8,8.9,60,0.00,,,0.00,WUHU216HW,2013-02-20 17:18:00,
2013-02-20 12:23:00,22.0,10.5,30.05,West,270,8.5,8.5,61,0.00,,,0.00,WUHU216HW,2013-02-20 17:23:00,
2013-02-20 12:28:00,21.8,10.4,30.05,WSW,248,8.9,9.2,61,0.00,,,0.00,WUHU216HW,2013-02-20 17:28:00,
2013-02-20 12:33:00,21.2,10.3,30.05,WSW,248,7.8,9.2,62,0.00,,,0.00,WUHU216HW,2013-02-20 17:33:00,
2013-02-20 12:38:00,21.6,10.2,30.04,WSW,248,9.4,9.4,61,0.00,,,0.00,WUHU216HW,2013-02-20 17:38:00,
2013-02-20 12:43:00,22.0,10.2,30.04,WNW,293,4.5,9.4,60,0.00,,,0.00,WUHU216HW,2013-02-20 17:43:00,
2013-02-20 12:48:00,22.3,10.5,30.04,West,270,3.6,6.3,60,0.00,,,0.00,WUHU216HW,2013-02-20 17:48:00,
2013-02-20 12:53:00,22.5,10.7,30.04,NNW,338,4.7,5.1,60,0.00,,,0.00,WUHU216HW,2013-02-20 17:53:00,
2013-02-20 12:58:00,22.3,11.9,30.05,WSW,248,6.0,6.9,64,0.00,,,0.00,WUHU216HW,2013-02-20 17:58:00,
2013-02-20 13:03:00,22.3,11.9,30.04,SW,225,6.0,7.4,64,0.00,,,0.00,WUHU216HW,2013-02-20 18:03:00,
2013-02-20 13:08:00,22.3,11.6,30.05,NW,315,6.3,7.4,63,0.00,,,0.00,WUHU216HW,2013-02-20 18:08:00,
2013-02-20 13:13:00,21.6,12.0,30.05,NW,315,5.6,8.9,66,0.00,,,0.00,WUHU216HW,2013-02-20 18:13:00,
2013-02-20 13:18:00,21.6,13.0,30.04,WNW,293,6.9,8.9,69,0.00,,,0.00,WUHU216HW,2013-02-20 18:18:00,
2013-02-20 13:23:00,21.2,13.6,30.05,NNW,338,7.8,8.5,72,0.00,,,0.00,WUHU216HW,2013-02-20 18:23:00,
2013-02-20 13:28:00,21.2,13.6,30.05,West,270,4.3,8.5,72,0.00,,,0.00,WUHU216HW,2013-02-20 18:28:00,
2013-02-20 13:33:00,21.1,15.0,30.05,WSW,248,6.9,12.5,77,0.00,,,0.00,WUHU216HW,2013-02-20 18:33:00,
2013-02-20 13:38:00,21.2,15.1,30.05,West,270,2.2,12.5,77,0.00,,,0.00,WUHU216HW,2013-02-20 18:38:00,
2013-02-20 13:44:00,21.8,13.1,30.05,NW,315,9.2,10.5,69,0.00,,,0.00,WUHU216HW,2013-02-20 18:44:00,
2013-02-20 13:48:00,21.8,12.8,30.06,West,270,6.3,10.5,68,0.00,,,0.00,WUHU216HW,2013-02-20 18:48:00,
2013-02-20 13:54:00,22.7,12.6,30.06,WSW,248,5.8,8.9,65,0.00,,,0.00,WUHU216HW,2013-02-20 18:54:00,
2013-02-20 13:59:00,23.4,13.3,30.06,WNW,293,5.4,8.9,65,0.00,,,0.00,WUHU216HW,2013-02-20 18:59:00,
2013-02-20 14:04:00,23.6,11.4,30.07,West,270,5.8,9.6,59,0.00,,,0.00,WUHU216HW,2013-02-20 19:04:00,
2013-02-20 14:09:00,22.9,9.5,30.07,West,270,9.8,9.8,56,0.00,,,0.00,WUHU216HW,2013-02-20 19:09:00,
2013-02-20 14:14:00,22.3,9.3,30.07,NW,315,4.9,11.9,57,0.00,,,0.00,WUHU216HW,2013-02-20 19:14:00,
2013-02-20 14:19:00,22.7,10.1,30.07,NW,315,9.6,11.9,58,0.00,,,0.00,WUHU216HW,2013-02-20 19:19:00,
2013-02-20 14:24:00,23.2,11.0,30.07,NNW,338,7.6,9.6,59,0.00,,,0.00,WUHU216HW,2013-02-20 19:24:00,
2013-02-20 14:29:00,23.2,11.0,30.07,West,270,4.7,10.1,59,0.00,,,0.00,WUHU216HW,2013-02-20 19:29:00,
2013-02-20 14:34:00,23.0,11.2,30.07,NW,315,2.0,10.1,60,0.00,,,0.00,WUHU216HW,2013-02-20 19:34:00,
2013-02-20 14:39:00,22.5,11.7,30.07,NW,315,6.7,6.7,63,0.00,,,0.00,WUHU216HW,2013-02-20 19:39:00,
2013-02-20 14:44:00,22.1,13.5,30.08,WNW,293,4.3,6.7,69,0.00,,,0.00,WUHU216HW,2013-02-20 19:44:00,
2013-02-20 14:49:00,22.5,14.2,30.07,WSW,248,5.4,5.4,70,0.00,,,0.00,WUHU216HW,2013-02-20 19:49:00,
2013-02-20 14:54:00,22.3,13.3,30.08,NNW,338,5.1,6.3,68,0.00,,,0.00,WUHU216HW,2013-02-20 19:54:00,
2013-02-20 14:59:00,22.9,13.9,30.08,West,270,6.9,6.9,68,0.00,,,0.00,WUHU216HW,2013-02-20 19:59:00,
2013-02-20 15:05:00,23.4,13.7,30.08,WNW,293,7.4,7.4,66,0.00,,,0.00,WUHU216HW,2013-02-20 20:05:00,
2013-02-20 15:09:00,23.9,13.9,30.08,WNW,293,4.5,7.4,65,0.00,,,0.00,WUHU216HW,2013-02-20 20:09:00,
2013-02-20 15:14:00,24.3,13.5,30.08,West,270,2.0,6.0,63,0.00,,,0.00,WUHU216HW,2013-02-20 20:14:00,
2013-02-20 15:19:00,24.5,13.0,30.07,West,270,4.3,6.0,61,0.00,,,0.00,WUHU216HW,2013-02-20 20:19:00,
2013-02-20 15:24:00,24.5,13.0,30.08,WSW,248,4.7,6.7,61,0.00,,,0.00,WUHU216HW,2013-02-20 20:24:00,
2013-02-20 15:29:00,24.5,13.0,30.08,WSW,248,4.9,7.6,61,0.00,,,0.00,WUHU216HW,2013-02-20 20:29:00,
2013-02-20 15:34:00,24.1,12.6,30.09,WSW,248,4.9,10.5,61,0.00,,,0.00,WUHU216HW,2013-02-20 20:34:00,
2013-02-20 15:39:00,23.2,11.3,30.08,West,270,2.5,10.5,60,0.00,,,0.00,WUHU216HW,2013-02-20 20:39:00,
2013-02-20 15:44:00,23.2,12.1,30.09,WSW,248,3.6,8.9,62,0.00,,,0.00,WUHU216HW,2013-02-20 20:44:00,
2013-02-20 15:49:00,23.8,12.6,30.09,West,270,6.0,6.0,62,0.00,,,0.00,WUHU216HW,2013-02-20 20:49:00,
2013-02-20 15:54:00,24.1,13.7,30.09,West,270,6.3,6.3,64,0.00,,,0.00,WUHU216HW,2013-02-20 20:54:00,
2013-02-20 15:59:00,23.8,12.6,30.10,WNW,293,4.7,9.6,62,0.00,,,0.00,WUHU216HW,2013-02-20 20:59:00,
2013-02-20 16:04:00,23.6,12.4,30.10,WNW,293,2.5,9.6,62,0.00,,,0.00,WUHU216HW,2013-02-20 21:04:00,
2013-02-20 16:09:00,23.4,12.6,30.10,WNW,293,7.4,7.4,63,0.00,,,0.00,WUHU216HW,2013-02-20 21:09:00,
2013-02-20 16:14:00,22.7,11.5,30.11,NW,315,7.2,7.4,62,0.00,,,0.00,WUHU216HW,2013-02-20 21:14:00,
2013-02-20 16:19:00,22.1,11.4,30.11,NW,315,6.3,7.8,63,0.00,,,0.00,WUHU216HW,2013-02-20 21:19:00,
2013-02-20 16:24:00,21.6,11.3,30.11,WNW,293,4.0,9.2,64,0.00,,,0.00,WUHU216HW,2013-02-20 21:24:00,
2013-02-20 16:29:00,22.0,11.6,30.12,West,270,7.2,9.2,64,0.00,,,0.00,WUHU216HW,2013-02-20 21:29:00,
2013-02-20 16:35:00,21.8,11.4,30.12,NW,315,7.4,8.3,64,0.00,,,0.00,WUHU216HW,2013-02-20 21:35:00,
2013-02-20 16:40:00,22.0,10.9,30.12,NNW,338,4.9,8.1,62,0.00,,,0.00,WUHU216HW,2013-02-20 21:40:00,
2013-02-20 16:45:00,22.0,10.9,30.12,WNW,293,3.8,8.1,62,0.00,,,0.00,WUHU216HW,2013-02-20 21:45:00,
2013-02-20 16:50:00,22.9,11.7,30.12,West,270,5.4,7.6,62,0.00,,,0.00,WUHU216HW,2013-02-20 21:50:00,
2013-02-20 16:55:00,23.0,11.2,30.12,North,0,8.7,8.7,60,0.00,,,0.00,WUHU216HW,2013-02-20 21:55:00,
2013-02-20 16:59:00,22.7,10.8,30.12,WNW,293,4.3,8.7,60,0.00,,,0.00,WUHU216HW,2013-02-20 21:59:00,
2013-02-20 17:05:00,22.0,10.2,30.12,NW,315,5.6,8.3,60,0.00,,,0.00,WUHU216HW,2013-02-20 22:05:00,
2013-02-20 17:10:00,21.8,10.4,30.13,West,270,6.3,8.3,61,0.00,,,0.00,WUHU216HW,2013-02-20 22:10:00,
2013-02-20 17:15:00,22.0,10.5,30.13,WNW,293,4.0,6.3,61,0.00,,,0.00,WUHU216HW,2013-02-20 22:15:00,
2013-02-20 17:20:00,21.8,10.4,30.14,WNW,293,2.9,8.7,61,0.00,,,0.00,WUHU216HW,2013-02-20 22:20:00,
2013-02-20 17:25:00,21.8,10.4,30.13,WSW,248,3.6,8.7,61,0.00,,,0.00,WUHU216HW,2013-02-20 22:25:00,
2013-02-20 17:30:00,21.6,10.2,30.13,NNW,338,2.5,3.8,61,0.00,,,0.00,WUHU216HW,2013-02-20 22:30:00,
2013-02-20 17:35:00,21.2,10.3,30.13,WSW,248,6.3,9.6,62,0.00,,,0.00,WUHU216HW,2013-02-20 22:35:00,
2013-02-20 17:40:00,21.2,10.5,30.13,NNW,338,2.7,9.6,63,0.00,,,0.00,WUHU216HW,2013-02-20 22:40:00,
2013-02-20 17:45:00,21.1,10.4,30.14,NW,315,6.9,6.9,63,0.00,,,0.00,WUHU216HW,2013-02-20 22:45:00,
2013-02-20 17:50:00,21.1,10.7,30.14,NW,315,4.9,6.9,64,0.00,,,0.00,WUHU216HW,2013-02-20 22:50:00,
2013-02-20 17:55:00,20.9,10.9,30.14,WSW,248,4.9,9.2,65,0.00,,,0.00,WUHU216HW,2013-02-20 22:55:00,
2013-02-20 18:00:00,20.7,11.1,30.14,WNW,293,4.5,9.2,66,0.00,,,0.00,WUHU216HW,2013-02-20 23:00:00,
2013-02-20 18:05:00,20.7,11.1,30.14,WNW,293,2.2,10.7,66,0.00,,,0.00,WUHU216HW,2013-02-20 23:05:00,
2013-02-20 18:10:00,20.5,11.3,30.14,WSW,248,8.3,10.7,67,0.00,,,0.00,WUHU216HW,2013-02-20 23:10:00,
2013-02-20 18:15:00,20.5,11.5,30.15,NNW,338,4.7,8.3,68,0.00,,,0.00,WUHU216HW,2013-02-20 23:15:00,
2013-02-20 18:20:00,20.5,11.3,30.15,WNW,293,4.0,7.6,67,0.00,,,0.00,WUHU216HW,2013-02-20 23:20:00,
2013-02-20 18:25:00,20.5,11.5,30.15,WSW,248,1.8,7.6,68,0.00,,,0.00,WUHU216HW,2013-02-20 23:25:00,
2013-02-20 18:30:00,20.3,11.7,30.15,WNW,293,3.8,7.6,69,0.00,,,0.00,WUHU216HW,2013-02-20 23:30:00,
2013-02-20 18:35:00,20.3,11.7,30.15,NW,315,4.7,7.6,69,0.00,,,0.00,WUHU216HW,2013-02-20 23:35:00,
2013-02-20 18:40:00,20.2,11.5,30.15,West,270,0.9,4.7,69,0.00,,,0.00,WUHU216HW,2013-02-20 23:40:00,
2013-02-20 18:45:00,20.2,12.2,30.15,WNW,293,2.0,4.5,71,0.00,,,0.00,WUHU216HW,2013-02-20 23:45:00,
2013-02-20 18:50:00,20.2,12.2,30.15,WSW,248,3.6,4.5,71,0.00,,,0.00,WUHU216HW,2013-02-20 23:50:00,
2013-02-20 18:55:00,20.2,12.2,30.15,West,270,3.8,4.0,71,0.00,,,0.00,WUHU216HW,2013-02-20 23:55:00,
2013-02-20 19:00:00,20.0,12.0,30.15,NW,315,2.2,4.3,71,0.00,,,0.00,WUHU216HW,2013-02-21 00:00:00,
2013-02-20 19:05:00,19.8,12.2,30.15,WNW,293,2.7,4.9,72,0.00,,,0.00,WUHU216HW,2013-02-21 00:05:00,
2013-02-20 19:10:00,19.8,12.2,30.15,NNW,338,3.6,4.9,72,0.00,,,0.00,WUHU216HW,2013-02-21 00:10:00,
2013-02-20 19:15:00,19.6,12.2,30.15,NW,315,1.8,4.7,73,0.00,,,0.00,WUHU216HW,2013-02-21 00:15:00,
2013-02-20 19:20:00,19.6,12.2,30.15,West,270,2.2,4.7,73,0.00,,,0.00,WUHU216HW,2013-02-21 00:20:00,
2013-02-20 19:25:00,19.4,12.7,30.15,WNW,293,1.8,6.3,75,0.00,,,0.00,WUHU216HW,2013-02-21 00:25:00,
2013-02-20 19:30:00,19.4,12.7,30.15,NW,315,3.8,6.3,75,0.00,,,0.00,WUHU216HW,2013-02-21 00:30:00,
2013-02-20 19:35:00,19.6,12.6,30.15,WNW,293,1.6,3.8,74,0.00,,,0.00,WUHU216HW,2013-02-21 00:35:00,
2013-02-20 19:40:00,19.6,12.9,30.15,NW,315,2.5,5.6,75,0.00,,,0.00,WUHU216HW,2013-02-21 00:40:00,
2013-02-20 19:45:00,19.6,12.6,30.14,WNW,293,0.7,5.6,74,0.00,,,0.00,WUHU216HW,2013-02-21 00:45:00,
2013-02-20 19:50:00,19.8,12.8,30.14,SW,225,2.7,4.0,74,0.00,,,0.00,WUHU216HW,2013-02-21 00:50:00,
2013-02-20 19:55:00,19.8,12.4,30.14,West,270,4.3,4.7,73,0.00,,,0.00,WUHU216HW,2013-02-21 00:55:00,
2013-02-20 20:00:00,19.8,12.4,30.14,West,270,2.2,4.7,73,0.00,,,0.00,WUHU216HW,2013-02-21 01:00:00,
2013-02-20 20:05:00,19.8,12.4,30.15,WSW,248,2.5,4.0,73,0.00,,,0.00,WUHU216HW,2013-02-21 01:05:00,
2013-02-20 20:10:00,19.8,12.2,30.15,NW,315,1.8,4.0,72,0.00,,,0.00,WUHU216HW,2013-02-21 01:10:00,
2013-02-20 20:15:00,20.0,12.3,30.15,NW,315,3.4,3.4,72,0.00,,,0.00,WUHU216HW,2013-02-21 01:15:00,
2013-02-20 20:20:00,19.8,12.2,30.15,West,270,2.5,4.9,72,0.00,,,0.00,WUHU216HW,2013-02-21 01:20:00,
2013-02-20 20:25:00,19.8,12.2,30.15,West,270,3.4,4.9,72,0.00,,,0.00,WUHU216HW,2013-02-21 01:25:00,
2013-02-20 20:30:00,19.8,12.2,30.15,NNW,338,1.6,3.6,72,0.00,,,0.00,WUHU216HW,2013-02-21 01:30:00,
2013-02-20 20:35:00,20.0,12.3,30.15,West,270,3.1,3.4,72,0.00,,,0.00,WUHU216HW,2013-02-21 01:35:00,
2013-02-20 20:40:00,20.0,12.3,30.15,West,270,3.4,4.5,72,0.00,,,0.00,WUHU216HW,2013-02-21 01:40:00,
2013-02-20 20:45:00,19.8,12.2,30.15,WSW,248,4.0,4.9,72,0.00,,,0.00,WUHU216HW,2013-02-21 01:45:00,
2013-02-20 20:50:00,19.8,12.2,30.15,NW,315,2.7,4.9,72,0.00,,,0.00,WUHU216HW,2013-02-21 01:50:00,
2013-02-20 20:55:00,19.8,12.2,30.15,West,270,3.4,4.7,72,0.00,,,0.00,WUHU216HW,2013-02-21 01:55:00,
2013-02-20 21:00:00,20.0,12.3,30.15,West,270,3.8,3.8,72,0.00,,,0.00,WUHU216HW,2013-02-21 02:00:00,
2013-02-20 21:05:00,20.0,12.3,30.15,WSW,248,1.8,4.5,72,0.00,,,0.00,WUHU216HW,2013-02-21 02:05:00,
2013-02-20 21:10:00,20.0,12.3,30.15,West,270,4.5,6.3,72,0.00,,,0.00,WUHU216HW,2013-02-21 02:10:00,
2013-02-20 21:15:00,20.0,12.3,30.15,West,270,5.8,6.3,72,0.00,,,0.00,WUHU216HW,2013-02-21 02:15:00,
2013-02-20 21:21:00,20.0,12.3,30.15,WNW,293,1.6,5.8,72,0.00,,,0.00,WUHU216HW,2013-02-21 02:21:00,
2013-02-20 21:26:00,20.0,12.3,30.15,WSW,248,2.5,4.0,72,0.00,,,0.00,WUHU216HW,2013-02-21 02:26:00,
2013-02-20 21:31:00,20.0,12.0,30.16,WNW,293,3.8,6.7,71,0.00,,,0.00,WUHU216HW,2013-02-21 02:31:00,
2013-02-20 21:36:00,20.0,12.0,30.16,North,0,3.1,6.7,71,0.00,,,0.00,WUHU216HW,2013-02-21 02:36:00,
2013-02-20 21:41:00,20.0,11.7,30.16,NW,315,4.0,7.4,70,0.00,,,0.00,WUHU216HW,2013-02-21 02:41:00,
2013-02-20 21:46:00,20.0,11.3,30.16,South,180,2.7,7.4,69,0.00,,,0.00,WUHU216HW,2013-02-21 02:46:00,
2013-02-20 21:51:00,20.0,11.3,30.15,West,270,4.0,7.4,69,0.00,,,0.00,WUHU216HW,2013-02-21 02:51:00,
2013-02-20 21:56:00,20.0,11.3,30.16,WNW,293,4.9,7.2,69,0.00,,,0.00,WUHU216HW,2013-02-21 02:56:00,
2013-02-20 22:01:00,20.0,11.7,30.16,WSW,248,8.5,8.5,70,0.00,,,0.00,WUHU216HW,2013-02-21 03:01:00,
2013-02-20 22:06:00,20.0,11.7,30.16,WNW,293,4.0,8.5,70,0.00,,,0.00,WUHU216HW,2013-02-21 03:06:00,
2013-02-20 22:11:00,20.0,12.0,30.16,WNW,293,4.3,7.8,71,0.00,,,0.00,WUHU216HW,2013-02-21 03:11:00,
2013-02-20 22:16:00,20.0,12.0,30.15,NNW,338,2.7,7.8,71,0.00,,,0.00,WUHU216HW,2013-02-21 03:16:00,
2013-02-20 22:21:00,20.0,11.7,30.15,NW,315,3.6,5.4,70,0.00,,,0.00,WUHU216HW,2013-02-21 03:21:00,
2013-02-20 22:26:00,20.0,11.3,30.15,NW,315,1.3,5.4,69,0.00,,,0.00,WUHU216HW,2013-02-21 03:26:00,
2013-02-20 22:31:00,20.0,11.3,30.15,West,270,3.8,5.4,69,0.00,,,0.00,WUHU216HW,2013-02-21 03:31:00,
2013-02-20 22:36:00,20.0,11.3,30.16,NW,315,5.1,5.4,69,0.00,,,0.00,WUHU216HW,2013-02-21 03:36:00,
2013-02-20 22:41:00,19.8,11.2,30.15,WNW,293,2.5,5.1,69,0.00,,,0.00,WUHU216HW,2013-02-21 03:41:00,
2013-02-20 22:46:00,19.8,11.2,30.15,NW,315,2.9,4.3,69,0.00,,,0.00,WUHU216HW,2013-02-21 03:46:00,
2013-02-20 22:51:00,19.8,11.2,30.15,WNW,293,1.3,4.3,69,0.00,,,0.00,WUHU216HW,2013-02-21 03:51:00,
2013-02-20 22:56:00,19.8,11.2,30.15,NW,315,1.8,4.0,69,0.00,,,0.00,WUHU216HW,2013-02-21 03:56:00,
2013-02-20 23:01:00,19.8,10.8,30.15,NW,315,3.4,4.3,68,0.00,,,0.00,WUHU216HW,2013-02-21 04:01:00,
2013-02-20 23:06:00,20.0,11.0,30.15,West,270,0.7,4.3,68,0.00,,,0.00,WUHU216HW,2013-02-21 04:06:00,
2013-02-20 23:11:00,20.0,10.4,30.15,NW,315,6.5,6.5,66,0.00,,,0.00,WUHU216HW,2013-02-21 04:11:00,
2013-02-20 23:16:00,20.0,10.0,30.14,NW,315,1.8,6.5,65,0.00,,,0.00,WUHU216HW,2013-02-21 04:16:00,
2013-02-20 23:21:00,20.0,10.0,30.14,NW,315,3.6,4.3,65,0.00,,,0.00,WUHU216HW,2013-02-21 04:21:00,
2013-02-20 23:26:00,20.0,10.0,30.14,WNW,293,4.7,5.4,65,0.00,,,0.00,WUHU216HW,2013-02-21 04:26:00,
2013-02-20 23:31:00,20.0,10.0,30.14,WNW,293,3.4,5.4,65,0.00,,,0.00,WUHU216HW,2013-02-21 04:31:00,
2013-02-20 23:36:00,19.8,9.8,30.14,NW,315,4.9,5.4,65,0.00,,,0.00,WUHU216HW,2013-02-21 04:36:00,
2013-02-20 23:41:00,19.8,10.2,30.14,NW,315,3.4,4.9,66,0.00,,,0.00,WUHU216HW,2013-02-21 04:41:00,
2013-02-20 23:46:00,19.8,10.2,30.14,NW,315,1.6,3.4,66,0.00,,,0.00,WUHU216HW,2013-02-21 04:46:00,
2013-02-20 23:51:00,19.8,10.5,30.13,NNW,338,2.0,2.5,67,0.00,,,0.00,WUHU216HW,2013-02-21 04:51:00,
2013-02-20 23:56:00,19.8,10.5,30.14,West,270,1.8,2.7,67,0.00,,,0.00,WUHU216HW,2013-02-21 04:56:00,